map of MJN home
MJN - Airport
Location
City:  Mahajanga, Madagascar
Near (Alt.):Majunga
Name:Philibert Tsiranana
Old (Alt.):Amborovy
ICAO:FMNM
IATA:MJN

Details
Type:Airport (Aerodrome, Airfield)
Use:International (customs port of entry)
Latitude:1540'02"S (-15.667143)
Longitude:4621'07"E (46.351828)
Datum:WGS 1984
Elevation:87 ft (27 m)
Variation:11.37W (WMM2015v2 magnetic declination)
-0.05 annual change
Runways:1
Longest:7218 × 148 ft (2200 × 45 m), paved

Time
Time Zone:UTC+3
Local Time:

Weather
METAR:FMNM 041400Z 32006KT 9999 FEW020CB 30/25 Q1009 NOSIG
TAF:FMNM 041100Z 0412/0512 32010KT 9999 SCT020CB SCT040 PROB40
TEMPO 0412/0503 4000 TSRA
BECMG 0418/0421 12005KT

Related Locations
Nearby:
Farthest:ITO: 11011 mi / 17721 km
Hilo [Hilo Intl], Hawaii, HI, US

Find:

   beyond  
but within

Other Information
Maps:
NOTAMs:
Links:
Sources:

  
  • flag of Madagascar
  

Sectional Chart

Flight Planning
at skyvector.com

Satellite Image

Google Maps Satellite view

 

Copyright © 2004-2019 Karl L. Swartz. All rights reserved.
The Great Circle Mapper name and logo are trademarks of the Great Circle Mapper.
All other trademarks mentioned herein belong to their respective owners.
Please see credits for attibutions and further copyright information.

  Follow gcmap on Facebook Follow gcmap on Twitter GCmap on LinkedIn

hCard Microformat

Geo Microformat